Tracking 18980 objects as of 23-Feb-2018
HD Live streaming from Space Station
objects crossing your sky now

FENGYUN 1C DEB

Track FENGYUN 1C DEB now!
10-day predictions


NORAD ID: 31776
Int'l Code: 1999-025CGB
Perigee: 830.0 km
Apogee: 924.3 km
Inclination: 99.1 °
Period: 102.4 minutes
Semi major axis: 7248 km
RCS: 0.0078 m2 (small)
Launch date: May 10, 1999
Source: People's Republic of China (PRC)
Launch site: Taiyaun Space Center, China (TSC)

Note: This is SATELLITE DEBRIS
aabbcc
Your satellite tracking list
Your tracking list is empty




NASA's NSSDC Master Catalog

Two Line Element Set (TLE):
1 31776U 99025CGB 18053.12529144  .00000594  00000-0  37655-3 0  9991
2 31776  99.1083  28.8951 0065098  31.4388  31.7334 14.06898672551063
Source of the keplerian elements: AFSPC